Torna al catalogo

COSMOS 1382 DEB

LostHEO
NORAD 27904·DEBRIS·🇷🇺 Russia

Lanciato Jun 25, 1982 da Plesetsk Cosmodrome

Loading…

Prossimi Passaggi (prossime 24 ore)

TLE

ObsoletoSource: Space-Track

Epoca: Apr 10, 2012, 09:30 UTC

1 27904U 82064F   12101.39645130  .00000729  00000-0  00000+0 0  9995
2 27904  69.0328 209.4828 5373810 105.8188 340.5105  1.98127554 69659

Traccia COSMOS 1382 DEB in tempo reale con AllMySat

Download on the App Store